Regional Weather Roundup
Issued by NWS

Home | Current Version | Previous Version | Graphics & Text | Print | Product List | Glossary On
Versions: 1 2 3 4 5 6 7 8 9 10 11 12 13 14 15 16 17 18 19 20 21 22 23 24 25 26 27 28 29 30 31 32 33 34 35 36 37 38 39 40 41 42 43 44 45 46 47 48 49 50
000
ASUS43 KDMX 231501
RWRIA

WEATHER ROUNDUP FOR IOWA
NATIONAL WEATHER SERVICE DES MOINES IA
1000 AM CDT MON APR 23 2018

NOTE: "FAIR" INDICATES FEW OR NO CLOUDS BELOW 12,000 FEET WITH NO
SIGNIFICANT WEATHER AND/OR OBSTRUCTIONS TO VISIBILITY.

* - THESE STATIONS ARE NOT NWS STATIONS...THUS NOT UNDER NWS
QUALITY CONTROL.  THEY ALSO DO NOT REPORT WEATHER SUCH
AS PRECIPITATION OR FOG.

IAZ001>003-012>014-020>022-031>034-043>046-231600-
   NORTHWEST IOWA

CITY           SKY/WX    TMP DP  RH WIND       PRES   REMARKS
CARROLL *      SUNNY     57  34  41 E6        30.21S
DENISON *      SUNNY     57  36  44 VRB7      30.22F
LE MARS *      SUNNY     57  37  47 SE7       30.22S
ORANGE CITY *  SUNNY     57  41  54 SE3       30.22S
SHELDON *      SUNNY     57  37  47 SE8       30.21S
SIOUX CITY     SUNNY     55  36  48 SE5       30.21F
SPENCER        SUNNY     56  37  49 SE5       30.23F
STORM LAKE *   SUNNY     55  36  47 E7        30.22S
$$

IAZ055>058-069>071-079>083-090>094-231600-
   SOUTHWEST IOWA

CITY           SKY/WX    TMP DP  RH WIND       PRES   REMARKS
ATLANTIC *     SUNNY     57  36  44 NE5G12    30.19F
AUDUBON *      SUNNY     57  32  38 NE6       30.21F
CLARINDA *     SUNNY     61  32  33 NE7G13    30.19F
COUNCIL BLFS * SUNNY     59  34  38 NE6       30.19F
CRESTON *      SUNNY     57  32  38 NE10      30.19S
HARLAN  *      SUNNY     59  32  36 E7        30.23F
LAMONI         MOSUNNY   58  34  40 NE10      30.15F
RED OAK *      SUNNY     61  36  39 NE9       30.18F
SHENANDOAH *   SUNNY     61  34  36 NE8       30.18F
$$

IAZ047>049-059>061-072>074-084-231600-
   CENTRAL IOWA

CITY           SKY/WX    TMP DP  RH WIND       PRES   REMARKS
AMES           SUNNY     58  33  39 NE7       30.21F
ANKENY *       SUNNY     57  32  38 NE6       30.21F
BOONE *        MOSUNNY   54  34  47 NE8       30.21S
CHARITON *     CLOUDY    57  32  38 E9        30.17S
DES MOINES     PTSUNNY   56  31  38 NE9       30.20F
GRINNELL*      CLOUDY    56  29  34 NE10      30.20F
KNOXVILLE *    CLOUDY    57  30  35 NE8       30.17F
MARSHALLTOWN   CLOUDY    57  32  38 E7        30.20F
NEWTON *       CLOUDY    57  30  35 NE6       30.20S
PELLA *        CLOUDY    60  27  27 NE7       30.20S
$$

IAZ004>006-015-016-023>025-035-036-231600-
   NORTH CENTRAL IOWA

CITY           SKY/WX    TMP DP  RH WIND       PRES   REMARKS
ALGONA *       SUNNY     55  36  47 CALM      30.24S
CLARION *      SUNNY     55  32  41 E10       30.22F
ESTHERVILLE      N/A     45  39  79 S3        30.23F
FORT DODGE *   SUNNY     56  36  47 E7        30.22F
MASON CITY     SUNNY     52  35  52 SE7       30.25F
FOREST CITY *  FAIR      52  34  50 SE6       30.24S
IOWA FALLS *   FAIR      56  32  39 NE6       30.23F
$$

IAZ007>011-017>019-026>030-037>042-050>054-066-231600-
   NORTHEAST IOWA

CITY           SKY/WX    TMP DP  RH WIND       PRES   REMARKS
CEDAR RAPIDS   FAIR      61  23  23 NE12      30.18F
CHARLES CITY * CLOUDY    55  34  44 E6        30.24F
CLINTON *      FAIR      55  29  36 NE13      30.19F
DECORAH *      FAIR      50  32  50 CALM      30.24S
DUBUQUE        FAIR      53  27  36 NE10      30.21F
MONTICELLO *   FAIR      59  21  23 E9        30.20F
OELWEIN *      FAIR      59  27  29 SE10      30.22F
WATERLOO       FAIR      57  32  38 NE7       30.22F
$$

IAZ064-065-067-068-078-231600-
   EAST CENTRAL IOWA

CITY           SKY/WX    TMP DP  RH WIND       PRES   REMARKS
DAVENPORT      FAIR      56  26  31 NE14      30.19F
IOWA CITY      FAIR      57  25  29 NE9       30.20F
MUSCATINE *    FAIR      57  28  33 NE12      30.17F
QUAD CITIES    FAIR      58  27  30 NE9       30.15F
$$

IAZ062-063-075>077-085>089-095>099-231600-
   SOUTHEAST IOWA

CITY           SKY/WX    TMP DP  RH WIND       PRES   REMARKS
BURLINGTON     CLOUDY    55  29  36 NE17      30.12F
FAIRFIELD *    MOSUNNY   55  30  38 NE12      30.15F
FORT MADISON * MOSUNNY   55  34  44 NE9       30.13F
KEOKUK *       CLOUDY    57  32  38 NE10      30.11F
CENTERVILLE *    N/A     59  32  36 NE10      30.16F
OTTUMWA        SUNNY     59  30  33 NE10      30.16F
WASHINGTON *   MOSUNNY   57  28  33 NE13      30.17F
$$

ABBREVIATIONS USED IN REMARKS
   TC - TEMPERATURES IN CELSIUS
  WCI - WIND CHILL INDEX
   HX - HEAT INDEX
  VSB - VISIBILITY
$$




USA.gov is the U.S. government's official web portal to all federal, state and local government web resources and services.